INTELSAT 902 (IS-902)

Last updated on Sun Jun 21 2026 00:03:03 GMT+0000 (Coordinated Universal Time)

1 26900U 01039A 26171.16820361 -.00000290 00000+0 00000+0 0 9994 2 26900 6.1243 71.7474 0004280 14.2873 192.7993 1.00270935 90729
UTC large
Height (km)
Speed (km/s)
/
Latitude / Longitude
Inclination (degrees)
Orbital Period (minutes)
Azimuth
Elevation
Range (km)
Doppler Factor

Next 0 passes for location: London (51.5072 / 0.1276)

No passes found over London.
INTELSAT 902 (IS-902)